Flag for Canada Weather past 2 weeks in Kenora, Ontario, Canada

Now
63 °F

Scattered clouds.


Feels Like: 63 °F
Forecast: 57 / 68 °F
Wind: 2 mph from Southeast

Location: Kenora

Current Time: Aug 30, 2014 at 8:23:19 PM

Latest Report: Aug 30, 2014 at 8:00 PM


Visibility: 15 mi

Pressure: 29.88 "Hg

Humidity: 68%

Dew point: 52 °F

Location of KenoraLocation

Historic Weather in Kenora — Graph

°F

Kenora temperature yesterday

Maximum temperature yesterday: 66 °F (at 3:00 AM)
Minimum temperature yesterday: 55 °F (at 11:00 PM)
Average temperature yesterday: 63 °F

Past Weeks' High & Low Weather Summary

 TemperatureHumidityPressure
High77 °F (Aug 15, 7:00 PM)100% (Aug 18, 2:00 AM)30.20 "Hg (Aug 18, 2:00 AM)
Low48 °F (Aug 26, 2:00 AM)49% (Aug 16, 7:00 PM)29.68 "Hg (Aug 25, 8:00 AM)
Average63 °F84%29.93 "Hg
* Reported Aug 15 7:00 PM — Aug 30 7:00 PM, Kenora, Weather by CustomWeather, © 2014

Note: Actual official high and low records may vary slightly from our data, if they occured in-between our weather recording intervals... More about our weather records

Advertising

Kenora weather history for previous 24 hours

 ConditionsComfort  
Time TempWeatherWind HumidityBarometerVisibility
7:00 PM
Aug 30
64 °FScattered clouds.6 mph64%29.88 "Hg15 mi
6:00 PM66 °FScattered clouds.9 mph56%29.90 "Hg15 mi
5:00 PM68 °FPassing clouds.5 mph49%29.91 "Hg15 mi
4:00 PM64 °FScattered clouds.2 mph60%29.92 "Hg15 mi
3:00 PM64 °FScattered clouds.7 mph56%29.93 "Hg15 mi
2:00 PM64 °FPartly sunny.6 mph68%29.95 "Hg15 mi
1:00 PM61 °FPartly sunny.7 mph68%29.96 "Hg15 mi
12:00 PM59 °FPartly sunny.2 mph72%29.97 "Hg15 mi
11:00 AM55 °FPartly sunny.6 mph94%29.99 "Hg15 mi
10:00 AM54 °FLow clouds.7 mph94%29.99 "Hg15 mi
9:00 AM55 °FPartly sunny.9 mph88%29.98 "Hg15 mi
8:55 AM55 °FBroken clouds.7 mph88%29.98 "Hg15 mi
8:00 AM52 °FPassing clouds.6 mph94%29.98 "Hg15 mi
7:00 AM50 °FPassing clouds.6 mph100%29.98 "Hg15 mi
6:00 AM50 °FPassing clouds.5 mph100%29.97 "Hg15 mi
5:00 AM50 °FPassing clouds.6 mph100%29.96 "Hg15 mi
4:00 AM52 °FClear.6 mph94%29.94 "Hg15 mi
3:00 AM52 °FClear.6 mph100%29.94 "Hg15 mi
2:00 AM54 °FClear.6 mph94%29.93 "Hg15 mi
1:00 AM54 °FClear.6 mph100%29.93 "Hg15 mi
12:00 AM55 °FPassing clouds.6 mph94%29.92 "Hg15 mi
11:00 PM
Aug 29
55 °FPassing clouds.7 mph94%29.91 "Hg15 mi
10:00 PM57 °FPassing clouds.7 mph94%29.89 "Hg15 mi
9:00 PM59 °FPartly sunny.7 mph88%29.89 "Hg15 mi
8:00 PM59 °FPartly sunny.6 mph94%29.86 "Hg15 mi
Weather by CustomWeather, © 2014

See weather overviewHow to use our weather pages